Content
SEND FEEDBACK

Daily
Averages
Monthly
Summary
United States of America

RIPLEY, CALIFORNIA


Home > North America > United States > California
Elevation: 394 feet     Latitude: 33 37N     Longitude: 114 43W

WEATHER
 
SELECT A DAY
Number of Records: 167,224;   Date Range: 1/1/95 - 10/21/14
 
SHARE

PRINT THIS DATA

[ ← Previous Day ]
WEATHER ALMANAC - FEBRUARY 13, 2013
[ Next Day → ]
[ °C ]   °F
Weather ElementAverageHighLow
Temperature53.1 °F69.1 °F (1:52 pm)37 °F (4:52 am)
Dewpoint23.1 °F28.9 °F (10:52 pm)17.1 °F (2:52 am)
Humidity33.7 %52 % (4:52 am)17 % (1:52 pm)
Barometer30.17 in30.25 in (7:52 am)30.10 in (3:52 pm)
Wind Speed4.8 mph12.7 mph (12:52 pm)
Wind Gust16.1 mph (1:52 pm)
Weather ElementAverage
Visibility10 mi
Wind DirectionSSE (154.8 °)

Weather ElementTotal
Precipitation---
Heating Degree Days12 (Base 65)
Growing Degree Days3.1 (Base 50)
Averaged from 23 records on February 13, 2013
WEATHER CONDITIONS BREAKOUT
WIND DIRECTION BREAKOUT
WEATHER BY HOUR - FEBRUARY 13, 2013
[ °C ]   °F
Local TimeTemperatureDewpointHumidityBarometerVisibilityWind DirectionWind SpeedGust SpeedPrecipitationEventsConditions
1:52 AM41.0 °F19.9 °F43 %30.22 in10.0 miCalmClear
2:52 AM41.0 °F17.1 °F38 %30.21 in10.0 miESE (120°)3.5 mphClear
3:52 AM39.0 °F19.0 °F45 %30.21 in10.0 miCalmClear
4:52 AM37.0 °F21.0 °F52 %30.22 in10.0 miCalmClear
5:52 AM37.0 °F21.0 °F52 %30.23 in10.0 miCalmClear
6:52 AM39.9 °F19.9 °F45 %30.23 in10.0 miCalmClear
7:52 AM44.1 °F19.9 °F38 %30.25 in10.0 miSouth (190°)3.5 mphClear
8:52 AM51.1 °F17.1 °F26 %30.25 in10.0 miSW (220°)3.5 mphClear
9:52 AM53.1 °F21.0 °F29 %30.25 in10.0 miSSW (210°)5.8 mphClear
10:52 AM57.9 °F26.1 °F30 %30.24 in10.0 miESE (120°)4.6 mphClear
11:52 AM64.0 °F26.1 °F24 %30.20 in10.0 miNorth (10°)9.2 mphClear
12:52 PM66.9 °F21.9 °F18 %30.16 in10.0 miNorth (360°)12.7 mphClear
1:52 PM69.1 °F21.9 °F17 %30.13 in10.0 miNorth (350°)12.7 mph16.1 mphClear
2:52 PM69.1 °F21.9 °F17 %30.12 in10.0 miNorth (10°)6.9 mphClear
3:52 PM69.1 °F21.9 °F17 %30.10 in10.0 miNNW (340°)11.5 mphClear
4:52 PM68.0 °F21.9 °F17 %30.10 in10.0 miNorth (350°)10.4 mphClear
5:52 PM61.0 °F27.0 °F27 %30.10 in10.0 miEast (90°)4.6 mphClear
6:52 PM60.1 °F26.1 °F27 %30.10 in10.0 miCalmClear
7:52 PM54.0 °F28.0 °F37 %30.12 in10.0 miWSW (250°)4.6 mphClear
8:52 PM53.1 °F27.0 °F37 %30.12 in10.0 miNW (320°)3.5 mphClear
9:52 PM51.1 °F27.0 °F39 %30.12 in10.0 miWest (270°)3.5 mphClear
10:52 PM48.0 °F28.9 °F48 %30.13 in10.0 miSE (140°)5.8 mphClear
11:52 PM46.0 °F28.9 °F51 %30.12 in10.0 miSSW (210°)3.5 mphClear
Hourly data recorded from KBLH, located miles away from Ripley, California







STORIES FROM OUR PARTNERS